Regional Weather Roundup
Issued by NWS Midland/Odessa, TX

Skip options and go directly to product.
Home | Oldest Version | Previous Version | Current Version | All | Text Only | Save Text | Print | Product List | Glossary On

Skip product version selection by date and time.   
689
ASUS44 KMAF 182310
RWRMAF
MIDLAND AREA WEATHER ROUNDUP
NATIONAL WEATHER SERVICE MIDLAND TX
600 PM CDT SAT APR 18 2015

...IN SOUTHWEST TEXAS AND SOUTHEAST NEW MEXICO...

CITY           SKY/WX    TMP DP  RH WIND       PRES   REMARKS
ALPINE         SUNNY     73  15  11 W21G26    29.97S
ANDREWS        FAIR      77  15   9 W20G31    29.80F
ARTESIA        MOSUNNY   75  23  14 W14G22    29.81S
BIG SPRING     SUNNY     82  16   8 SW22G32   29.80F
CARLSBAD       MOSUNNY   78  21  12 W29G36    29.80F
DRYDEN           N/A     86  31  13 SW13      29.76F
FORT STOCKTON  SUNNY     79  18  10 W14       29.81F
GUAD PASS      SUNNY     67  21  17 W48G61    29.87F
HOBBS          MOSUNNY   73  23  15 SW21G28   29.82F
MARFA          SUNNY     72  16  12 SW18G28   29.96F
MIDLAND AIRPK  SUNNY     81  19  10 SW14G21   29.80F
MIDLAND INTL   SUNNY     80  19  10 SW16G26   29.79F
ODESSA         SUNNY     80  13   8 SW20G28   29.80F
PECOS          SUNNY     81  20  10 W13G26    29.80F
PRESIDIO       FAIR      83  13   7 MISG      29.84F
SEMINOLE       SUNNY     76  21  12 W13       29.81F
SNYDER         SUNNY    N/A N/A N/A W18G24    29.76F
WINK           SUNNY     80   8   6 W17G32    29.79S
$$
...OTHER STATIONS IN TEXAS...

CITY           SKY/WX    TMP DP  RH WIND       PRES   REMARKS
ABILENE        CLOUDY    73  50  44 E8        29.76R
AMARILLO       MOSUNNY   67  29  24 S12G24    29.77F
AUSTIN         CLOUDY    75  66  73 SE13      29.76F
BROWNSVILLE    PTSUNNY   79  68  69 SE16      29.77S
CORPUS CHRISTI PTSUNNY   71  65  81 E16       29.79S
DALLAS FTW     PTSUNNY   77  63  61 E10       29.74F
DEL RIO        PTSUNNY   81  60  48 SW6       29.74F
EL PASO        MOSUNNY   76  19  11 NW21G31   29.87F
HOUSTON INT    CLOUDY    75  70  84 S8        29.78F
LUBBOCK        MOSUNNY   75  24  15 SW21G30   29.77F
SAN ANGELO     MOSUNNY   80  51  36 E6        29.75S
SAN ANTONIO    PTSUNNY   76  66  71 E10       29.78S
WACO           MOSUNNY   78  64  61 SE9       29.74F
WICHITA FALLS  NOT AVBL
$$
...OTHER LOCATIONS IN NEW MEXICO...

CITY           SKY/WX    TMP DP  RH WIND       PRES   REMARKS
ALAMAGORDO     PTSUNNY   73  25  16 W13G21    29.87F
ALBUQUERQUE    PTSUNNY   62  22  21 N21G26    29.90F
CANNON AFB     NOT AVBL
CLOVIS         MOSUNNY   66  27  22 SW16G22   29.78F
HOLLOMAN AFB   PTSUNNY   71  25  18 NW5       29.85F
ROSWELL        MOSUNNY   75  22  13 W12       29.79F
RUIDOSO        PTSUNNY   54  25  32 SW15G24   29.95F
SANTA FE       MOSUNNY   53  19  26 W15G24    29.91S
TRUTH OR CONSE PTSUNNY   71  21  15 NW21G28   29.88F
TUCUMCARI      CLOUDY    71  13  10 W26G33    29.75F
$$

USA.gov is the U.S. government's official web portal to all federal, state and local government web resources and services.